This is the latest recevied weather packets stored in our database for station/object OE-11361. If no packets are shown the sender has not sent any weather packets the latest 10 day(s).
| Time | Temp. | Humidity | Pressure | Rain* | Wind** | Luminosity | Snow |
|---|---|---|---|---|---|---|---|
| 1787892076 | 21.11° C | 74% | 1011.5 hPa | 0 mm | - | 7 W/m² | - |
| 1787891703 | 21.67° C | 69% | 1011.3 hPa | 0 mm | - | 0 W/m² | - |
| 1787891104 | 21.67° C | 71% | 1011.5 hPa | 0 mm | - | 0 W/m² | - |
| 1787890276 | 22.22° C | 68% | 1011.5 hPa | 0 mm | - | 0 W/m² | - |
| 1787889904 | 21.67° C | 70% | 1011.5 hPa | 0 mm | - | 0 W/m² | - |
| 1787889304 | 21.67° C | 71% | 1011.7 hPa | 0 mm | - | 0 W/m² | - |
| 1787888703 | 22.22° C | 68% | 1011.6 hPa | 0 mm | - | 0 W/m² | - |
| 1787888103 | 21.67° C | 70% | 1011.6 hPa | 0 mm | - | 0 W/m² | - |
| 1787887503 | 21.67° C | 70% | 1011.5 hPa | 0 mm | - | 0 W/m² | - |
| 1787886676 | 22.22° C | 69% | 1011.8 hPa | 0 mm | - | 0 W/m² | - |
| 1787886303 | 21.67° C | 72% | 1011.9 hPa | 0 mm | - | 0 W/m² | - |
| 1787885704 | 22.22° C | 69% | 1011.8 hPa | 0 mm | - | 0 W/m² | - |
| 1787884877 | 22.22° C | 68% | 1011.4 hPa | 0 mm | - | 0 W/m² | - |
| 1787884504 | 21.67° C | 72% | 1011.6 hPa | 0 mm | - | 0 W/m² | - |
| 1787883904 | 21.67° C | 72% | 1011.8 hPa | 0 mm | - | 0 W/m² | - |
| 1787883077 | 21.67° C | 72% | 1011.9 hPa | 0 mm | - | 0 W/m² | - |
| 1787882704 | 21.67° C | 72% | 1011.8 hPa | 0 mm | - | 0 W/m² | - |
| 1787882104 | 21.67° C | 72% | 1011.7 hPa | 0 mm | - | 0 W/m² | - |
| 1787881277 | 21.67° C | 72% | 1011.7 hPa | 0 mm | - | 0 W/m² | - |
| 1787880904 | 21.67° C | 75% | 1011.9 hPa | 0 mm | - | 0 W/m² | - |
| 1787880304 | 21.11° C | 75% | 1011.8 hPa | 0 mm | - | 0 W/m² | - |
| 1787879476 | 21.11° C | 76% | 1011.9 hPa | 0 mm | - | 0 W/m² | - |
| 1787879103 | 21.67° C | 73% | 1011.9 hPa | 0 mm | - | 0 W/m² | - |
| 1787878504 | 21.67° C | 74% | 1011.9 hPa | 0 mm | - | 0 W/m² | - |
| 1787877676 | 21.67° C | 74% | 1011.6 hPa | 0 mm | - | 0 W/m² | - |
* Rain latest hour (hover to see other rain measurements)
** Current wind speed in m/s (hover to see current wind gust speed)